This is the latest recevied weather packets stored in our database for station/object WE3WEE. If no packets are shown the sender has not sent any weather packets the latest 10 day(s).
| Time | Temp. | Humidity | Pressure | Rain* | Wind** | Luminosity | Snow |
|---|---|---|---|---|---|---|---|
| 1777296366 | 13.33° C | 78% | 1024.9 hPa | 0 mm | - | - | - |
| 1777296062 | 12.78° C | 75% | 1024.9 hPa | 0 mm | - | - | - |
| 1777295759 | 12.22° C | 78% | 1024.9 hPa | 0 mm | - | - | - |
| 1777295457 | 12.78° C | 79% | 1024.9 hPa | 0 mm | - | - | - |
| 1777295155 | 12.78° C | 75% | 1024.9 hPa | 0 mm | - | - | - |
| 1777294852 | 12.78° C | 79% | 1024.9 hPa | 0 mm | - | - | - |
| 1777294552 | 12.78° C | 76% | 1024.9 hPa | 0 mm | - | - | - |
| 1777294248 | 12.22° C | 75% | 1024.9 hPa | 0 mm | - | - | - |
| 1777293945 | 11.67° C | 82% | 1024.9 hPa | 0 mm | - | - | - |
| 1777293641 | 11.67° C | 80% | 1024.9 hPa | 0 mm | - | - | - |
| 1777293337 | 11.11° C | 80% | 1024.9 hPa | 0 mm | - | - | - |
| 1777293032 | 11.11° C | 83% | 1024.9 hPa | 0 mm | - | - | - |
| 1777292732 | 10.56° C | 80% | 1024.9 hPa | 0 mm | - | - | - |
| 1777292428 | 9.44° C | 84% | 1024.9 hPa | 0 mm | - | - | - |
| 1777292125 | 9.44° C | 86% | 1024.9 hPa | 0 mm | - | - | - |
| 1777291821 | 10° C | 84% | 1024.9 hPa | 0 mm | - | - | - |
| 1777291518 | 9.44° C | 84% | 1023.9 hPa | 0 mm | - | - | - |
| 1777291215 | 8.89° C | 85% | 1023.9 hPa | 0 mm | - | - | - |
| 1777290911 | 8.89° C | 88% | 1023.9 hPa | 0 mm | - | - | - |
| 1777290609 | 8.89° C | 88% | 1023.9 hPa | 0 mm | - | - | - |
| 1777290305 | 8.89° C | 90% | 1023.9 hPa | 0 mm | - | - | - |
| 1777290001 | 8.33° C | 99% | 1023.9 hPa | 0 mm | - | - | - |
| 1777289697 | 8.33° C | 99% | 1023.9 hPa | 0 mm | - | - | - |
| 1777289393 | 7.22° C | 99% | 1023.9 hPa | 0 mm | - | - | - |
| 1777289089 | 6.11° C | 99% | 1023.9 hPa | 0 mm | - | - | - |
* Rain latest hour (hover to see other rain measurements)
** Current wind speed in m/s (hover to see current wind gust speed)